[[{"header":{"parameterUnit":"m.s-1","parameterCategory":1,"la1":30.2991,"la2":30.254,"lo1":-89.0895,"lo2":-89.0444,"dy":0.0017,"dx":0.0017,"nx":28,"ny":28,"refTime":"2025-08-27T09:00:00:Z","depth":0,"parameterNumber":2,"parameterNumberName":"U-component_of_WINDS"},"data":[0,0,0,0,0,0,0,0,0,0,0,0,0,0,0,0,0,0,0,0,0,0,0,0,0,0,0,0,0,0,0,0,0,0,0,0,0,0,0,0,0,0,0,0,0,0,0,0,0,0,0,0,0,0,0,0,0,0,-3.2821,-3.2821,0,-3.2891,-3.2892,-3.2893,-3.2788,-3.2784,-3.2781,-3.2777,-3.2851,-3.2856,-3.2861,0,0,0,0,0,0,0,0,0,0,0,0,0,-3.2596,-3.2601,-3.2821,-3.2822,-3.2822,-3.2891,-3.2892,-3.2893,-3.2789,-3.2784,-3.278,-3.2776,-3.2849,-3.2855,-3.2862,0,0,0,0,0,0,0,0,0,0,0,0,0,-3.2683,-3.2603,-3.282,-3.2779,-3.2776,-3.2891,-3.2892,-3.2893,-3.279,-3.2784,-3.2779,-3.2774,-3.2847,-3.2855,-3.2863,-3.3022,0,0,-3.2887,-3.2891,0,0,0,0,0,0,0,0,-3.2678,-3.2691,-3.2784,-3.2782,-3.2779,-3.2825,-3.284,-3.2936,-3.2791,-3.2784,-3.2777,-3.2771,-3.2847,-3.2854,-3.288,-3.3026,-3.3029,-3.2888,-3.2893,-3.2896,-3.2899,0,0,0,0,0,0,0,-3.2672,-3.2688,-3.2848,-3.2785,-3.2782,-3.2757,-3.2763,-3.2857,-3.2846,-3.2785,-3.2777,-3.2787,-3.2844,-3.2872,-3.2881,-3.303,-3.2888,-3.2895,-3.29,-3.2903,-3.331,-3.3316,0,0,0,0,0,0,-3.2671,-3.2684,-3.2846,-3.2851,-3.2714,-3.2765,-3.2772,-3.2816,-3.2844,-3.2843,-3.2791,-3.2782,-3.2861,-3.2871,-3.2883,-3.3072,-3.2896,-3.2904,-3.2908,-3.3304,-3.3311,-3.3318,0,0,0,0,0,0,-3.2667,-3.2687,-3.2843,-3.2765,-3.2783,-3.2775,-3.2825,-3.282,-3.2848,-3.2849,-3.2847,-3.2822,-3.2857,-3.2872,-3.2988,-3.3073,-3.2907,-3.2915,-3.3297,-3.3306,-3.3315,-3.3451,0,0,0,0,0,0,-3.2661,-3.2686,-3.2747,-3.2767,-3.2788,-3.2948,-3.283,-3.2825,-3.2862,-3.285,-3.2878,-3.2877,-3.2854,-3.2977,-3.2996,-3.3081,-3.2921,-3.3289,-3.3301,-3.3312,-3.3439,-3.3464,-3.3485,0,0,0,0,0,-3.2653,-3.2783,-3.275,-3.277,-3.2863,-3.2953,-3.2965,-3.2935,-3.2869,-3.293,-3.2931,-3.2876,-3.306,-3.299,-3.3011,-3.3099,-3.3284,-3.3298,-3.3311,-3.3429,-3.3459,-3.3484,0,0,0,0,0,0,-3.2773,-3.2785,-3.2749,-3.2888,-3.2921,-3.2935,-3.3011,-3.2968,-3.302,-3.3007,-3.2968,-3.2975,-3.31,-3.3111,-3.3032,-3.3255,-3.3161,-3.3179,-3.3244,-3.3272,-3.3295,-3.329,-3.2928,0,0,0,0,0,-3.2815,-3.2887,-3.2893,-3.3016,-3.3034,-3.302,-3.3058,-3.3033,-3.3064,-3.3078,-3.3087,-3.312,-3.3185,-3.3229,-3.3289,-3.344,-3.3444,-3.3511,-3.3534,-3.3552,-3.3569,-3.365,-3.3679,-3.3362,-3.3362,-3.3362,0,0,-3.2904,-3.2919,-3.2967,-3.304,-3.3062,-3.3138,-3.3032,-3.3117,-3.3172,-3.309,-3.3201,-3.3209,-3.3243,-3.3378,-3.3438,-3.3391,-3.3657,-3.3569,-3.3584,-3.3591,-3.3666,-3.3697,-3.3723,-3.3371,-3.3369,-3.3368,0,0,-3.3104,-3.3123,-3.3227,-3.3251,-3.3285,-3.3275,-3.33,-3.3321,-3.3323,-3.3434,-3.3374,-3.3439,-3.3552,-3.3579,-3.3608,-3.3818,-3.377,-3.3838,-3.3958,-3.4037,-3.4062,-3.4084,-3.416,-3.4187,-3.3855,-3.3855,-3.3855,0,-3.3211,-3.3322,-3.3286,-3.3375,-3.3409,-3.3338,-3.3443,-3.3468,-3.352,-3.3546,-3.3492,-3.3632,-3.365,-3.379,-3.3841,-3.3866,-3.3894,-3.3836,-3.4061,-3.4083,-3.4103,-3.4175,-3.4203,-3.3863,-3.3862,-3.3861,-3.3861,0,-3.3451,-3.3529,-3.3609,-3.3661,-3.3704,-3.3801,-3.378,-3.3828,-3.3798,-3.3794,-3.3907,-3.3926,-3.3988,-3.4019,-3.3991,-3.4155,-3.4125,-3.4067,-3.3973,-3.4142,-3.4209,-3.4236,-3.3875,-3.3872,-3.387,-3.3868,0,0,-3.373,-3.376,-3.3791,-3.3813,-3.3845,-3.3905,-3.3998,-3.4059,-3.41,-3.4139,-3.4216,-3.4313,-3.4259,-3.4292,-3.4266,-3.4335,-3.4501,-3.4268,-3.4269,-3.4312,-3.4683,-3.4727,-3.476,-3.4468,-3.4473,-3.4477,-3.468,0,-3.3931,-3.4091,-3.4062,-3.4219,-3.429,-3.4223,-3.4304,-3.4333,-3.4331,-3.4391,-3.4388,-3.4458,-3.4382,-3.4401,-3.4466,-3.4467,-3.4575,-3.4452,-3.4541,-3.4544,-3.4535,-3.4794,-3.4841,-3.5032,-3.4706,-3.471,-3.4714,0,-3.4186,-3.4234,-3.4398,-3.4418,-3.4447,-3.452,-3.4573,-3.4632,-3.4663,-3.4656,-3.4692,-3.4653,-3.4746,-3.4649,-3.4776,-3.4693,-3.4727,-3.4733,-3.474,-3.4748,-3.464,-3.481,-3.5092,-3.5121,-3.4754,-3.4751,-3.4748,0,-3.4375,-3.4479,-3.4591,-3.4612,-3.4638,-3.4691,-3.4705,-3.473,-3.4768,-3.4814,-3.4839,-3.4896,-3.4927,-3.4972,-3.4949,-3.488,-3.5081,-3.4982,-3.5079,-3.508,-3.5125,-3.5123,-3.5418,-3.5146,-3.5146,-3.5145,-3.5144,0,-3.4602,-3.4706,-3.4675,-3.4745,-3.4858,-3.4823,-3.4936,-3.4941,-3.4964,-3.5033,-3.4977,-3.5043,-3.5009,-3.5072,-3.5054,-3.5163,-3.5177,-3.5175,-3.5169,-3.5181,-3.5181,-3.5204,-3.519,-3.5153,-3.5151,-3.5149,-3.5148,0,-3.4832,-3.4816,-3.4934,-3.4948,-3.4954,-3.5038,-3.505,-3.5114,-3.5107,-3.5195,-3.5214,-3.5203,-3.5275,-3.5256,-3.5334,-3.5322,-3.5459,-3.5436,-3.5449,-3.5444,-3.5542,-3.5534,-3.5863,-3.5904,-3.5605,-3.5608,-3.561,0,-3.4979,-3.5057,-3.508,-3.5122,-3.5139,-3.5207,-3.5246,-3.5214,-3.5256,-3.5297,-3.5356,-3.5422,-3.5474,-3.5591,-3.5591,-3.565,-3.5628,-3.574,-3.5637,-3.5646,-3.5631,-3.5627,-3.5635,-3.5761,-3.5764,-3.5767,-3.5769,0,-3.5242,-3.523,-3.5287,-3.5343,-3.539,-3.5432,-3.5469,-3.5506,-3.5477,-3.5527,-3.5599,-3.5639,-3.5718,-3.5785,-3.5839,-3.5852,-3.5807,-3.5801,-3.5827,-3.584,-3.5844,-3.5844,-3.5506,-3.5794,-3.5792,-3.579,-3.5788,-3.5787,-3.5435,-3.5501,-3.5528,-3.5594,-3.5618,-3.5653,-3.5714,-3.5715,-3.5774,-3.5836,-3.5813,-3.5896,-3.5924,-3.5991,-3.6012,-3.6076,-3.6034,-3.6071,-3.608,-3.609,-3.6103,-3.5833,-3.6086,-3.6085,-3.6084,-3.6083,-3.6083,0,-3.5696,-3.5709,-3.577,-3.5823,-3.5875,-3.5826,-3.5864,-3.5911,-3.5984,-3.6014,-3.6065,-3.6148,-3.6212,-3.6217,-3.6277,-3.6327,-3.6308,-3.6344,-3.6341,-3.6345,-3.6137,-3.6109,-3.6359,-3.6359,-3.6359,-3.6359,-3.6359,-3.6359,-3.5837,-3.5946,-3.5938,-3.6058,-3.607,-3.6151,-3.6176,-3.6209,-3.6232,-3.6327,-3.638,-3.6382,-3.6402,-3.6463,-3.6519,-3.6519,-3.6544,-3.6589,-3.6581,-3.6387,-3.6359,-3.6333,-3.6307,-3.6594,-3.6595,-3.6783,-3.6785,-3.6786]},{"header":{"parameterUnit":"m.s-1","parameterCategory":1,"la1":30.2991,"la2":30.254,"lo1":-89.0895,"lo2":-89.0444,"dy":0.0017,"dx":0.0017,"nx":28,"ny":28,"refTime":"2025-08-27T09:00:00:Z","depth":0,"parameterNumber":3,"parameterNumberName":"V-component_of_WINDS"},"data":[0,0,0,0,0,0,0,0,0,0,0,0,0,0,0,0,0,0,0,0,0,0,0,0,0,0,0,0,0,0,0,0,0,0,0,0,0,0,0,0,0,0,0,0,0,0,0,0,0,0,0,0,0,0,0,0,0,0,-4.1114,-4.1115,0,-4.1166,-4.1166,-4.1167,-4.1118,-4.1116,-4.1114,-4.1112,-4.1161,-4.1164,-4.1167,0,0,0,0,0,0,0,0,0,0,0,0,0,-4.0968,-4.0971,-4.1114,-4.1115,-4.1115,-4.1166,-4.1167,-4.1167,-4.1118,-4.1116,-4.1113,-4.1111,-4.116,-4.1164,-4.1168,0,0,0,0,0,0,0,0,0,0,0,0,0,-4.1027,-4.0972,-4.1114,-4.1097,-4.1096,-4.1166,-4.1167,-4.1167,-4.1119,-4.1116,-4.1113,-4.111,-4.1159,-4.1164,-4.1168,-4.1256,0,0,-4.1183,-4.1185,0,0,0,0,0,0,0,0,-4.1023,-4.1032,-4.1099,-4.1098,-4.1097,-4.1133,-4.1133,-4.1197,-4.1119,-4.111,-4.1112,-4.1109,-4.1154,-4.1159,-4.1175,-4.1258,-4.126,-4.1183,-4.1186,-4.1188,-4.1189,0,0,0,0,0,0,0,-4.1019,-4.1029,-4.1134,-4.11,-4.1099,-4.1085,-4.109,-4.1145,-4.1148,-4.1111,-4.1107,-4.1114,-4.1153,-4.117,-4.1176,-4.1261,-4.1183,-4.1187,-4.119,-4.1192,-4.1416,-4.1419,0,0,0,0,0,0,-4.1018,-4.1026,-4.1133,-4.1136,-4.1053,-4.109,-4.1096,-4.1124,-4.1147,-4.1148,-4.1117,-4.1112,-4.1164,-4.117,-4.1177,-4.128,-4.1188,-4.1192,-4.1195,-4.1413,-4.1417,-4.142,0,0,0,0,0,0,-4.1015,-4.1028,-4.1131,-4.108,-4.1092,-4.1096,-4.1128,-4.1127,-4.1144,-4.1152,-4.1151,-4.1134,-4.1162,-4.117,-4.1236,-4.1281,-4.1194,-4.1199,-4.1409,-4.1414,-4.1419,-4.1486,0,0,0,0,0,0,-4.1011,-4.1027,-4.1062,-4.1082,-4.1095,-4.1191,-4.1131,-4.113,-4.1153,-4.1147,-4.1168,-4.1169,-4.116,-4.123,-4.1241,-4.1286,-4.1202,-4.1405,-4.1412,-4.1417,-4.148,-4.1493,-4.1504,0,0,0,0,0,-4.1006,-4.1078,-4.1064,-4.1077,-4.1139,-4.1194,-4.1201,-4.1191,-4.1157,-4.1191,-4.1195,-4.1168,-4.1274,-4.1237,-4.1249,-4.1296,-4.1403,-4.141,-4.1417,-4.1475,-4.149,-4.1503,0,0,0,0,0,0,-4.1062,-4.108,-4.1064,-4.1146,-4.1169,-4.1185,-4.1228,-4.1208,-4.124,-4.1233,-4.1217,-4.1222,-4.1292,-4.13,-4.1258,-4.1381,-4.1333,-4.1343,-4.1373,-4.1387,-4.1399,-4.1395,-4.1206,0,0,0,0,0,-4.1084,-4.1129,-4.1142,-4.1212,-4.1224,-4.1224,-4.1248,-4.1238,-4.126,-4.1269,-4.1278,-4.13,-4.1338,-4.1363,-4.1399,-4.1481,-4.1484,-4.1519,-4.1531,-4.1541,-4.1549,-4.1591,-4.1607,-4.1444,-4.1444,-4.1443,0,0,-4.113,-4.1145,-4.1174,-4.1224,-4.124,-4.1285,-4.1233,-4.1282,-4.1314,-4.1276,-4.1339,-4.1346,-4.1369,-4.1444,-4.1477,-4.1453,-4.1595,-4.155,-4.1557,-4.156,-4.16,-4.1616,-4.1629,-4.1448,-4.1448,-4.1447,0,0,-4.1236,-4.1253,-4.1313,-4.133,-4.1356,-4.1355,-4.137,-4.1389,-4.1393,-4.1456,-4.1428,-4.1465,-4.1531,-4.1548,-4.1566,-4.1677,-4.1652,-4.1689,-4.1749,-4.1791,-4.1804,-4.1815,-4.1853,-4.1867,-4.1697,-4.1697,-4.1697,0,-4.1289,-4.1357,-4.1346,-4.1397,-4.1419,-4.1387,-4.1446,-4.1463,-4.1499,-4.1514,-4.1487,-4.1569,-4.1582,-4.1659,-4.1686,-4.1701,-4.1716,-4.1686,-4.1803,-4.1814,-4.1825,-4.186,-4.1875,-4.1701,-4.1701,-4.17,-4.17,0,-4.1419,-4.1467,-4.1511,-4.1548,-4.1574,-4.163,-4.1625,-4.1653,-4.1641,-4.1642,-4.1705,-4.172,-4.1757,-4.1775,-4.1763,-4.185,-4.1834,-4.1806,-4.1757,-4.1844,-4.1878,-4.1892,-4.1707,-4.1706,-4.1705,-4.1703,0,0,-4.1562,-4.1592,-4.1608,-4.1623,-4.1649,-4.1684,-4.1737,-4.1774,-4.1798,-4.1823,-4.1866,-4.1922,-4.1895,-4.1915,-4.1905,-4.1941,-4.2026,-4.1908,-4.1908,-4.1928,-4.212,-4.2141,-4.2157,-4.2011,-4.2013,-4.2015,-4.2118,0,-4.1668,-4.1761,-4.1752,-4.184,-4.1882,-4.1852,-4.1897,-4.1917,-4.192,-4.1954,-4.1956,-4.1996,-4.1959,-4.197,-4.2005,-4.2008,-4.2064,-4.2001,-4.2048,-4.205,-4.2042,-4.2175,-4.2197,-4.2293,-4.2131,-4.2133,-4.2135,0,-4.1804,-4.1834,-4.1927,-4.1944,-4.1962,-4.2003,-4.2035,-4.207,-4.2091,-4.209,-4.2112,-4.2094,-4.2145,-4.2096,-4.2165,-4.2122,-4.2141,-4.2145,-4.2149,-4.2152,-4.2097,-4.218,-4.2323,-4.2337,-4.2156,-4.2154,-4.2152,0,-4.1896,-4.1961,-4.2024,-4.2038,-4.2061,-4.209,-4.2101,-4.2119,-4.2142,-4.217,-4.2184,-4.2217,-4.2235,-4.226,-4.2252,-4.2218,-4.2322,-4.2273,-4.2321,-4.2321,-4.2343,-4.2342,-4.2491,-4.2358,-4.2358,-4.2358,-4.2357,0,-4.2014,-4.2071,-4.2066,-4.2104,-4.2167,-4.2155,-4.2217,-4.2223,-4.2239,-4.2277,-4.2253,-4.2289,-4.2277,-4.2311,-4.2305,-4.2362,-4.237,-4.2369,-4.2367,-4.2371,-4.2371,-4.2382,-4.2374,-4.2361,-4.2361,-4.236,-4.2359,0,-4.2128,-4.2127,-4.2194,-4.221,-4.2215,-4.226,-4.2273,-4.2308,-4.2309,-4.2357,-4.2368,-4.2368,-4.2407,-4.2402,-4.2445,-4.2441,-4.2511,-4.2501,-4.2505,-4.2502,-4.255,-4.2545,-4.271,-4.273,-4.2586,-4.2587,-4.2588,0,-4.2203,-4.2246,-4.2267,-4.2292,-4.2304,-4.2344,-4.2367,-4.2356,-4.2381,-4.2407,-4.2439,-4.2476,-4.2506,-4.2569,-4.2572,-4.2605,-4.2595,-4.265,-4.2599,-4.2602,-4.2594,-4.2591,-4.2594,-4.266,-4.2662,-4.2663,-4.2664,0,-4.2335,-4.2332,-4.2367,-4.2401,-4.2429,-4.2455,-4.2479,-4.25,-4.2491,-4.252,-4.256,-4.2583,-4.2627,-4.2664,-4.2695,-4.2703,-4.2682,-4.268,-4.2693,-4.2697,-4.2696,-4.2695,-4.253,-4.2676,-4.2675,-4.2674,-4.2673,-4.2673,-4.2431,-4.2467,-4.2487,-4.2526,-4.2543,-4.2565,-4.2599,-4.2604,-4.2637,-4.2673,-4.2665,-4.271,-4.2728,-4.2767,-4.2779,-4.2813,-4.2793,-4.2811,-4.2816,-4.282,-4.2825,-4.2692,-4.2819,-4.2819,-4.2818,-4.2818,-4.2818,0,-4.256,-4.2571,-4.2607,-4.2641,-4.2671,-4.265,-4.2674,-4.27,-4.2741,-4.276,-4.2789,-4.2835,-4.287,-4.2876,-4.2909,-4.2935,-4.2925,-4.2944,-4.2941,-4.2943,-4.2843,-4.2828,-4.295,-4.295,-4.295,-4.295,-4.295,-4.295,-4.2631,-4.2691,-4.269,-4.2757,-4.2767,-4.2812,-4.2828,-4.2848,-4.2863,-4.2915,-4.2944,-4.2948,-4.2962,-4.2995,-4.3026,-4.3027,-4.3039,-4.3061,-4.3057,-4.2963,-4.295,-4.2937,-4.2923,-4.3064,-4.3064,-4.3154,-4.3155,-4.3156]}]]